Location: Vancouver
(49.2500°N, 123.1330°W)
Time: 04:35:40
(UTC-07:00)

Vanguard 2 Rocket - Visible Passes

Search period start: 02 September 2014 00:00
Search period end: 12 September 2014 00:00
Orbit: 554 x 3335 km, 32.9° (Epoch: 02 September)

Date Brightness Start Highest point End Pass type
(mag) Time Alt. Az. Time Alt. Az. Time Alt. Az.
02 Sep 8.4 21:04:37 10° SW 21:06:40 12° SSW 21:08:29 10° S visible
04 Sep 8.5 21:21:28 10° SW 21:22:49 11° SSW 21:24:05 10° S visible
05 Sep 8.6 20:21:09 10° SW 20:25:02 16° SSW 20:28:08 10° SSE visible
07 Sep 8.7 20:37:42 10° SW 20:41:08 14° SSW 20:43:56 10° S visible
09 Sep 9.1 20:55:10 10° SW 20:57:03 11° SSW 20:58:44 10° SSW visible
